Temp
7 7 6 6 6 6 6 6 6 6 6 5 5 5 5 5 5 5 5 5 5 6 6 6 6 6 6 6 6 6 6 6 6 5 5 5 5 4 4 4 4 4
7 6 6 6 6 6 6 6 6 6 6 5 5 5 5 5 5 5 5 5 5 6 6 6 6 6 6 6 6 6 6 6 5 5 5 5 4 4 4 4 4 4
7 6 6 6 6 6 6 6 6 6 6 5 5 5 5 5 5 5 5 5 5 6 6 6 6 6 6 6 6 6 6 5 5 5 5 4 4 4 4 4 3 3
7 6 6 6 6 6 6 6 6 6 6 5 5 5 5 5 5 5 5 5 5 5 5 6 6 6 6 5 5 5 5 5 5 5 4 4 4 4 4 3 3 3
6 6 6 6 6 6 6 6 6 6 5 5 5 5 5 5 5 5 5 5 5 5 5 5 5 5 5 5 5 5 5 5 5 4 4 4 4 3 3 3 3 3
6 6 6 6 6 6 6 6 6 6 5 5 5 5 5 5 5 5 5 5 5 5 5 5 5 5 5 5 5 5 5 5 4 4 4 4 3 3 3 3 3 3
7 7 6 6 6 6 6 6 6 6 5 5 5 5 5 5 5 5 5 5 5 5 5 5 5 5 5 5 5 5 4 4 4 4 4 3 3 3 3 3 3 2
7 6 6 6 6 6 6 6 6 5 5 5 5 5 5 5 5 5 5 5 5 5 5 5 5 5 5 5 4 4 4 4 4 3 3 3 3 2 2 2 2 2
6 6 6 6 6 6 6 6 5 5 5 5 5 5 5 5 5 5 5 5 5 5 5 5 5 5 4 4 4 4 4 4 3 3 3 2 2 2 2 2 2 2
6 6 6 6 6 6 6 5 5 5 5 5 5 5 5 5 5 5 5 5 5 5 5 5 5 5 4 4 4 4 4 3 3 3 2 2 2 2 2 2 2 2
6 6 6 6 6 6 5 5 5 5 5 5 5 5 5 5 4 5 5 5 5 4 5 5 4 4 4 4 4 4 3 3 3 2 2 2 2 2 2 2 1 1
7 6 6 6 6 6 5 5 5 5 5 5 5 5 4 4 4 4 4 4 4 4 4 4 4 4 4 4 4 3 3 3 2 2 2 2 2 1 1 1 1 1
6 6 6 6 6 5 5 5 5 5 5 5 4 4 4 4 4 4 4 4 4 4 4 4 4 4 4 4 3 3 3 2 2 1 1 1 1 1 1 1 1 0
6 6 6 6 6 5 5 5 5 5 5 5 4 4 4 4 4 4 4 4 4 4 4 4 4 3 3 3 3 3 2 2 1 1 1 1 1 1 1 1 0 0
6 6 6 6 6 5 5 5 5 5 5 5 4 5 5 4 4 4 4 4 4 4 3 3 3 3 3 2 2 2 2 2 1 1 1 1 1 1 0 0 0 0
6 6 6 6 6 5 5 5 5 5 5 5 4 5 4 4 4 4 4 4 4 3 3 3 3 3 2 2 2 2 2 2 1 1 1 1 0 0 0 0 0 -0
6 6 6 6 6 5 5 5 5 5 5 5 5 4 4 4 4 4 4 4 3 3 3 3 3 3 2 2 2 2 2 2 1 1 1 0 0 0 0 0 0 -0
6 5 6 6 6 5 5 5 5 5 5 5 5 4 4 3 3 4 4 4 3 3 3 3 3 3 2 2 2 2 2 1 1 1 0 0 0 0 0 0 -0 -1
6 5 6 6 5 5 5 5 5 5 5 5 4 4 4 3 3 3 3 3 3 3 3 3 3 2 2 2 2 2 1 1 1 1 0 0 -0 -0 -0 -0 -1 -1
5 6 6 6 5 5 5 5 5 5 5 5 4 4 4 4 4 3 3 3 3 3 3 3 3 2 2 2 2 2 1 1 1 0 0 -0 -0 -0 -0 -1 -1 -1
6 6 6 6 5 5 5 5 5 5 5 5 4 4 4 4 3 3 3 3 3 3 3 3 2 2 2 2 2 2 1 1 1 0 -0 -0 -0 -0 -1 -1 -1 -1
6 6 6 6 6 6 5 5 5 5 5 5 4 4 4 4 3 3 3 3 3 2 2 2 2 2 2 2 2 1 1 1 0 -0 -0 -0 -0 -1 -1 -1 -1 -1
6 6 6 6 6 6 5 5 5 5 5 5 4 4 4 3 3 3 3 3 3 3 3 3 2 1 1 2 1 1 1 0 0 -0 -0 -0 -1 -1 -1 -1 -1 -2
6 6 6 6 6 5 5 5 5 5 5 4 4 3 3 3 3 3 3 3 3 2 3 3 2 1 1 1 1 1 1 0 -0 -0 -0 -1 -1 -1 -1 -1 -2 -2
6 6 5 5 5 5 5 5 5 5 4 4 3 3 3 3 3 2 2 2 2 2 2 2 2 1 1 1 1 1 0 -0 -0 -0 -1 -1 -1 -1 -1 -1 -2 -2
6 5 5 5 5 5 5 5 5 4 3 3 3 3 3 2 2 2 2 2 2 1 2 2 1 1 1 1 1 1 0 -0 -1 -1 -1 -1 -1 -1 -1 -2 -2 -2
Height
3136 3137 3138 3139 3140 3141 3142 3143 3143 3144 3145 3145 3147 3148 3148 3149 3150 3151 3152 3152 3153 3153 3153 3154 3154 3154 3154 3154 3153 3153 3153 3152 3152 3152 3151 3151 3151 3150 3150 3150 3149 3149
3134 3135 3136 3137 3138 3139 3140 3141 3142 3142 3143 3144 3145 3146 3147 3148 3149 3150 3150 3150 3151 3151 3151 3152 3152 3152 3152 3152 3151 3151 3151 3150 3150 3150 3149 3149 3149 3149 3148 3148 3147 3147
3132 3133 3135 3136 3137 3137 3138 3139 3140 3141 3141 3142 3143 3144 3145 3146 3148 3148 3148 3149 3149 3149 3149 3150 3150 3150 3150 3150 3150 3149 3149 3149 3148 3148 3148 3148 3147 3147 3146 3146 3146 3145
3130 3131 3133 3134 3135 3135 3136 3137 3138 3139 3139 3140 3142 3143 3143 3145 3146 3146 3147 3147 3147 3147 3148 3148 3148 3148 3148 3148 3148 3148 3147 3147 3147 3146 3146 3146 3145 3145 3145 3144 3144 3143
3128 3129 3131 3131 3132 3133 3134 3135 3136 3137 3138 3139 3140 3141 3142 3143 3144 3144 3145 3145 3145 3146 3146 3146 3146 3146 3146 3146 3146 3146 3145 3145 3145 3145 3144 3144 3143 3143 3143 3142 3142 3141
3126 3127 3129 3129 3130 3131 3132 3133 3134 3135 3137 3137 3138 3139 3140 3141 3142 3142 3143 3143 3144 3144 3144 3144 3144 3144 3144 3144 3144 3144 3143 3143 3143 3143 3142 3142 3141 3141 3141 3141 3140 3140
3123 3125 3126 3127 3128 3130 3131 3131 3132 3134 3135 3136 3136 3137 3138 3139 3140 3140 3141 3141 3142 3142 3142 3142 3142 3142 3142 3142 3142 3142 3141 3141 3141 3141 3140 3140 3140 3140 3139 3139 3139 3138
3121 3123 3124 3125 3127 3128 3129 3130 3131 3132 3133 3134 3134 3135 3136 3137 3138 3138 3139 3139 3140 3140 3141 3141 3141 3140 3140 3140 3140 3140 3140 3139 3139 3139 3139 3138 3138 3138 3138 3137 3137 3136
3119 3121 3122 3124 3125 3126 3127 3128 3129 3130 3130 3131 3132 3132 3134 3135 3136 3137 3137 3137 3138 3139 3139 3139 3139 3138 3138 3138 3138 3138 3138 3138 3138 3137 3137 3137 3137 3136 3136 3136 3135 3135
3116 3118 3120 3121 3123 3123 3124 3125 3126 3127 3128 3129 3130 3130 3131 3133 3134 3135 3135 3136 3136 3137 3137 3137 3136 3136 3136 3136 3136 3136 3136 3136 3136 3136 3135 3135 3135 3134 3134 3134 3133 3133
3113 3115 3117 3118 3120 3121 3122 3123 3123 3125 3125 3126 3127 3128 3130 3131 3132 3133 3133 3133 3134 3134 3134 3134 3134 3134 3135 3135 3135 3134 3134 3134 3134 3134 3133 3133 3133 3132 3132 3132 3131 3131
3110 3112 3114 3115 3117 3118 3119 3120 3121 3122 3123 3124 3126 3127 3128 3129 3130 3130 3131 3131 3131 3132 3132 3132 3132 3132 3133 3133 3133 3133 3132 3132 3132 3131 3131 3131 3131 3130 3130 3130 3129 3129
3108 3110 3111 3113 3114 3116 3117 3118 3119 3120 3121 3122 3124 3125 3126 3127 3127 3128 3129 3129 3129 3130 3130 3130 3130 3130 3131 3131 3131 3130 3130 3129 3129 3129 3129 3129 3129 3128 3128 3127 3127 3127
3105 3107 3109 3111 3112 3113 3114 3115 3117 3118 3119 3121 3122 3123 3124 3125 3125 3126 3127 3127 3127 3127 3128 3128 3128 3128 3129 3129 3128 3127 3127 3126 3126 3126 3126 3126 3126 3126 3126 3125 3125 3125
3103 3105 3107 3108 3109 3111 3112 3113 3115 3116 3117 3119 3120 3121 3122 3123 3124 3124 3124 3124 3125 3125 3126 3127 3127 3127 3126 3126 3126 3125 3125 3125 3124 3123 3124 3124 3124 3124 3123 3123 3123 3123
3100 3103 3104 3106 3107 3109 3110 3111 3112 3114 3116 3117 3119 3119 3120 3121 3122 3122 3121 3122 3122 3123 3123 3124 3124 3124 3123 3123 3123 3123 3123 3122 3121 3121 3121 3121 3121 3121 3121 3121 3122 3122
3098 3100 3102 3103 3105 3107 3108 3109 3110 3112 3114 3115 3116 3117 3118 3118 3119 3119 3119 3120 3120 3120 3121 3121 3120 3120 3120 3120 3120 3120 3120 3120 3119 3119 3119 3119 3119 3119 3119 3119 3120 3120
3095 3097 3099 3101 3103 3104 3106 3107 3108 3110 3112 3113 3114 3114 3115 3116 3116 3116 3117 3117 3117 3117 3118 3117 3117 3117 3117 3117 3118 3118 3118 3117 3117 3116 3117 3117 3117 3117 3117 3117 3118 3118
3093 3095 3097 3099 3101 3102 3103 3105 3106 3107 3109 3110 3111 3112 3112 3113 3114 3114 3114 3114 3114 3114 3114 3114 3114 3114 3114 3115 3115 3115 3115 3115 3115 3115 3115 3115 3115 3115 3115 3116 3116 3116
3090 3092 3095 3097 3099 3100 3101 3102 3104 3105 3106 3108 3109 3109 3110 3110 3111 3111 3111 3111 3112 3112 3112 3112 3112 3111 3111 3112 3113 3113 3113 3112 3113 3113 3113 3113 3113 3113 3114 3114 3114 3114
3088 3090 3093 3095 3096 3098 3099 3100 3101 3102 3104 3105 3106 3107 3107 3108 3108 3108 3108 3108 3108 3109 3109 3109 3109 3109 3109 3109 3110 3110 3110 3110 3110 3111 3111 3111 3111 3111 3112 3112 3112 3112
3086 3088 3090 3092 3094 3095 3097 3097 3098 3100 3102 3103 3104 3104 3104 3105 3105 3106 3105 3105 3105 3106 3106 3106 3106 3106 3106 3107 3107 3107 3107 3108 3108 3108 3108 3109 3109 3109 3110 3110 3110 3110
3084 3086 3088 3090 3091 3093 3094 3095 3096 3097 3099 3100 3100 3101 3102 3102 3103 3103 3103 3103 3103 3102 3102 3103 3103 3103 3104 3105 3105 3105 3105 3106 3106 3106 3106 3107 3107 3107 3108 3108 3109 3109
3082 3084 3086 3087 3089 3090 3091 3092 3093 3095 3096 3096 3097 3098 3099 3099 3099 3100 3100 3100 3100 3100 3099 3100 3100 3100 3101 3102 3102 3102 3103 3103 3104 3104 3104 3105 3105 3106 3106 3107 3107 3107
3080 3082 3084 3085 3087 3087 3088 3089 3090 3092 3093 3093 3094 3096 3096 3096 3096 3097 3098 3098 3097 3097 3096 3097 3098 3098 3098 3099 3100 3100 3101 3101 3101 3102 3102 3103 3103 3104 3104 3105 3105 3105
3078 3080 3082 3083 3084 3085 3086 3086 3088 3089 3089 3090 3091 3092 3093 3093 3094 3094 3094 3094 3094 3093 3093 3094 3096 3096 3096 3097 3097 3097 3098 3099 3099 3100 3100 3101 3101 3102 3102 3103 3103 3103
Wind_Speed
23 21 21 21 21 21 20 18 17 17 17 17 17 16 16 16 17 17 17 17 18 18 18 19 19 19 19 19 19 19 19 19 19 18 18 17 17 17 16 16 16 17
22 21 22 22 22 21 20 18 18 18 18 17 16 16 17 16 16 17 17 17 17 18 18 18 19 19 19 19 18 18 18 18 18 17 17 17 17 17 17 17 17 17
23 22 22 21 21 20 19 19 19 18 18 17 16 17 17 16 16 16 16 16 17 17 17 17 18 18 18 18 18 18 18 17 17 17 17 17 17 17 17 17 17 18
24 23 22 21 20 20 20 19 19 19 18 17 17 18 18 17 16 17 17 16 16 16 16 17 17 18 18 17 17 17 17 17 17 17 17 17 17 17 18 17 18 18
24 24 22 20 19 20 20 19 19 19 17 17 19 19 19 18 18 18 17 16 16 15 16 17 18 18 17 16 16 16 16 17 17 17 17 17 18 18 18 18 18 18
25 24 22 20 20 19 18 19 19 19 18 19 21 20 20 19 19 18 18 17 16 16 17 18 17 16 15 15 16 16 16 17 17 17 17 18 18 18 18 18 18 17
25 24 22 21 20 18 19 20 20 20 19 20 22 21 20 20 19 19 18 18 17 18 18 17 16 15 15 15 16 16 16 16 17 18 18 18 18 18 18 18 17 16
26 24 22 21 20 19 20 21 21 21 20 21 22 22 21 20 20 20 19 19 18 19 18 17 16 15 15 15 15 15 16 17 18 18 18 18 18 18 18 17 17 16
26 25 23 22 22 21 21 21 21 21 21 22 23 23 22 21 20 20 20 20 20 20 19 18 16 15 15 15 14 15 16 17 17 18 18 18 18 18 18 17 17 16
27 25 24 23 23 23 22 21 22 21 22 23 23 23 22 21 20 21 21 21 21 21 20 18 17 16 15 15 14 15 16 16 17 17 18 18 17 17 17 17 16 15
28 26 24 23 23 23 22 22 22 22 23 23 23 23 22 21 21 22 22 22 22 22 21 20 19 17 16 15 15 15 15 15 16 17 17 17 17 17 17 16 15 15
28 26 24 24 23 23 23 22 22 23 23 23 23 23 21 21 22 23 23 24 23 23 23 22 20 19 18 16 15 14 14 15 15 16 17 17 17 16 15 15 14 14
28 26 25 24 23 23 23 23 23 24 24 23 23 23 22 22 23 24 24 24 24 24 24 23 23 23 20 17 16 15 14 14 14 15 17 17 16 15 15 14 14 13
29 27 25 24 24 24 24 24 24 24 24 23 23 23 22 22 23 24 24 25 25 26 26 25 25 25 22 19 20 19 17 16 14 14 16 16 15 15 14 14 13 13
30 27 25 25 25 25 25 25 25 24 24 23 23 23 23 23 23 23 24 26 26 26 26 25 24 23 21 19 19 18 18 17 14 13 14 15 14 15 14 14 13 13
29 26 26 26 25 25 25 25 25 25 24 23 23 23 23 23 22 22 24 25 26 26 27 25 22 20 19 16 15 16 18 17 13 12 14 14 14 14 14 13 13 12
28 27 27 26 25 25 26 26 26 26 24 22 23 23 23 23 22 23 25 26 27 27 23 18 17 18 18 16 15 16 17 15 13 12 14 14 14 14 14 13 13 12
28 27 27 26 24 25 26 26 27 26 24 23 23 22 23 24 23 24 25 26 27 25 17 13 13 15 16 16 15 15 16 15 13 13 14 14 14 15 14 13 13 12
28 28 28 25 24 25 26 27 27 26 24 23 23 23 24 24 23 24 24 23 23 21 17 15 14 14 15 15 14 14 14 14 13 13 14 14 15 15 14 13 12 12
30 29 27 24 24 25 26 26 26 26 25 24 24 25 25 24 23 23 23 22 20 20 20 19 15 14 14 13 13 13 13 13 13 13 13 14 14 14 13 13 13 12
30 29 26 25 25 25 25 26 28 28 27 26 25 26 26 26 26 24 23 21 21 20 21 19 16 16 15 14 14 13 13 13 13 13 14 14 14 14 14 13 13 13
30 28 26 25 25 24 25 27 28 28 28 27 27 27 27 26 26 25 23 22 22 22 21 18 16 17 16 15 15 14 13 13 13 13 14 14 14 14 14 13 13 14
30 27 26 25 24 23 25 27 28 28 28 28 27 26 26 25 24 24 24 24 23 22 20 16 15 18 17 16 16 15 13 13 14 14 15 14 14 15 14 13 14 14
28 26 25 25 24 25 26 28 28 28 28 29 27 25 24 24 23 24 26 27 24 21 20 17 17 20 19 18 17 15 14 14 15 15 15 14 14 15 14 14 14 14
26 25 26 26 26 27 28 29 29 28 28 29 28 25 25 26 26 26 28 28 24 23 22 19 18 21 21 19 18 16 15 16 16 15 15 14 14 15 14 15 15 14
26 26 27 27 28 28 29 29 29 28 27 28 28 26 26 27 27 27 29 27 25 25 24 19 18 21 22 21 21 18 17 17 16 15 15 15 14 15 15 15 15 14
Wind_Direction
235 236 237 243 248 250 250 248 245 240 238 240 246 250 249 245 244 248 252 253 254 254 255 258 263 268 270 271 272 275 279 282 283 283 283 282 281 282 282 282 284 288
234 235 239 244 247 248 248 245 241 237 236 240 247 251 248 246 245 249 253 253 253 253 255 260 264 266 268 269 273 276 279 281 282 282 282 281 282 282 282 284 287 290
234 236 240 244 246 245 243 241 238 236 236 240 246 248 246 244 246 250 253 252 252 253 256 260 263 265 267 270 274 277 279 281 282 282 282 282 283 283 284 287 289 290
234 236 240 244 243 240 237 236 237 235 236 239 243 244 245 245 248 252 252 251 252 254 257 261 263 266 268 271 275 277 280 281 281 282 283 284 284 284 286 287 288 289
234 236 240 242 240 236 234 234 235 235 235 239 242 244 245 246 249 251 250 249 251 255 259 262 264 266 269 272 275 277 279 281 281 282 283 284 285 285 286 286 286 288
233 236 238 240 238 235 234 234 235 235 234 237 242 246 246 247 248 248 248 249 252 257 260 262 263 266 269 272 276 278 279 281 282 283 284 284 285 285 285 285 286 287
233 235 237 238 237 235 234 234 234 234 234 236 241 245 246 247 249 247 247 249 254 259 260 261 264 268 271 273 276 278 280 282 283 284 284 284 284 284 284 285 286 287
232 234 235 237 236 235 234 233 234 235 235 237 240 244 246 247 248 248 247 250 256 260 260 263 267 271 272 275 278 280 282 283 284 284 284 284 284 284 284 285 287 288
231 233 234 235 236 236 234 232 233 235 237 238 240 244 246 247 250 249 249 251 257 259 261 265 269 271 273 275 278 280 281 283 284 284 284 284 285 285 285 286 287 288
231 233 234 234 236 237 235 234 234 235 238 239 241 244 247 250 252 251 251 253 257 259 261 266 269 270 272 274 276 280 283 285 285 285 284 285 284 284 285 286 287 289
231 233 235 237 238 239 237 236 236 237 239 240 242 246 249 252 255 254 253 255 257 259 262 266 267 268 270 271 276 281 285 286 286 285 285 284 283 283 284 286 287 287
232 233 236 239 240 240 239 239 238 240 240 241 244 247 251 254 257 256 255 256 258 261 265 267 267 267 268 270 275 280 283 284 284 284 283 281 281 281 282 284 284 284
231 232 235 239 240 241 241 240 240 241 242 243 246 250 254 257 258 258 258 260 262 265 268 270 270 268 265 266 270 270 269 272 276 279 278 276 277 279 280 281 282 283
231 232 233 236 239 240 241 241 241 243 244 246 249 253 256 259 261 262 263 265 268 271 273 274 275 273 269 265 266 264 263 264 267 269 270 271 273 276 278 280 281 281
230 231 231 234 238 240 241 241 242 243 245 247 250 254 258 261 264 266 267 269 274 277 278 278 278 277 272 266 267 274 278 276 269 262 263 268 272 274 277 280 280 280
230 229 230 235 239 241 242 243 244 245 247 248 251 255 258 262 266 268 269 271 275 278 280 281 279 274 267 263 272 284 284 277 267 260 263 268 271 274 277 280 281 280
229 228 231 236 240 241 243 245 246 248 249 250 253 256 258 262 265 266 267 271 276 278 280 279 275 268 262 265 277 283 278 272 268 263 264 268 270 273 277 280 280 275
228 228 233 238 240 243 246 247 249 250 251 253 255 258 260 262 264 267 270 273 277 280 281 282 280 269 261 265 273 274 271 270 268 264 265 268 271 274 278 280 275 266
227 229 234 238 241 245 248 249 251 253 253 254 256 258 260 262 264 269 273 274 277 282 287 292 287 268 258 263 266 266 270 272 271 270 269 271 274 277 280 277 268 262
228 231 235 238 242 245 249 251 251 253 254 254 255 257 260 262 265 269 273 276 280 284 287 289 280 258 250 252 256 263 269 272 273 271 270 272 275 277 278 272 265 267
230 233 236 239 241 245 249 251 252 253 254 255 255 257 259 261 264 266 268 273 278 278 279 279 264 245 240 243 250 259 264 266 268 267 267 270 271 273 273 267 265 271
231 235 238 240 244 247 248 250 253 254 256 258 257 257 259 260 262 263 267 274 276 273 275 274 254 238 237 242 249 256 258 261 262 261 263 266 266 269 268 264 267 275
233 236 241 244 248 251 252 254 256 256 257 258 257 257 261 261 260 262 269 275 273 269 273 271 248 237 239 244 250 255 257 258 257 258 261 263 264 265 264 264 272 276
234 237 242 247 250 252 255 257 258 257 257 257 256 256 259 259 257 261 269 273 268 264 267 264 245 237 239 243 248 252 252 251 253 257 260 261 262 262 262 266 272 272
235 238 242 246 248 251 254 257 258 256 255 255 255 254 254 257 260 265 268 269 266 263 264 260 246 240 242 244 247 249 248 248 251 255 259 261 261 261 264 269 271 269
234 238 241 245 248 251 254 257 258 258 256 257 259 259 259 261 264 267 267 266 266 264 261 259 250 245 245 243 240 240 240 243 249 254 257 261 262 262 267 270 269 267